Regional Weather Roundup
Issued by NWS Upton, NY

Current Version | Previous Version | Graphics & Text | Print | Product List | Glossary Off
Versions: 1 2 3 4 5 6 7 8 9 10 11 12 13 14 15 16 17 18 19 20 21 22 23 24 25 26 27

000
ASUS41 KOKX 252305
RWROKX

Regional Weather Roundup
National Weather Service New York NY
700 PM EDT WED APR 25 2018

Note: "FAIR" indicates few or no clouds below 12,000 feet with no
significant weather and/or obstructions to visibility.

NYZ071-072-176-178-NJZ106-104-260000-
New York City Metro Area

CITY           SKY/WX    TMP DP  RH WIND       PRES   REMARKS
Central Park   CLOUDY    57  56  96 VRB3      29.69F FOG
Bronx Bot Gard   N/A     52  52 100 N3        29.68R
Bronx Lehman C   N/A     54  54 100 E6          N/A
LaGuardia Arpt CLOUDY    54  52  93 NE9       29.67F FOG
Queens College   N/A     55  54  94 SE6         N/A
Kennedy Intl   FOG       53  53 100 SE3       29.68F VSB 1/4
Breezy Point     N/A     50 N/A N/A E2          N/A
Brooklyn Coll    N/A     52  52 100 SE3         N/A
Staten Island    N/A     55  54  94 E6          N/A
Newark/Liberty CLOUDY    57  55  93 NE6       29.67S FOG
Teterboro      CLOUDY    58  57  97 E5        29.66S FOG
$$

NYZ177-179-078>081-260000-
Long Island New York

CITY           SKY/WX    TMP DP  RH WIND       PRES   REMARKS
Jones Beach      N/A     50 N/A N/A SE3         N/A
Wantagh          N/A     52  52 100 E3          N/A
Hempstead        N/A     54  54 100 SE3       29.70F
Matinecock Pt    N/A     46 N/A N/A E6          N/A
Farmingdale    FOG       54  54 100 S6        29.68F VSB 3/4
MacArthur/ISP  LGT RAIN  56  56 100 SE6       29.68F VSB 1
Stony Brook      N/A     57  55  94 S7          N/A
Shirley        CLOUDY    56  56 100 SE6       29.70S FOG
Mt Sinai Harb    N/A    N/A N/A N/A S8          N/A
Westhampton    FOG       55  54  96 S6        29.71F VSB 1
East Hampton   CLOUDY    53  53  99 S7        29.70F FOG
Southold         N/A     57  57 100 SE5         N/A
Montauk          N/A     52  52 100 S5        29.72F
$$

NYZ052-065-067-260000-
Hudson Valley

CITY           SKY/WX    TMP DP  RH WIND       PRES   REMARKS
White Plains   FOG       55  55 100 E6        29.67F VSB<1/4
Larchmont Harb   N/A     46 N/A N/A NE12        N/A
Croton On Huds   N/A     57 N/A N/A MISG        N/A
Somers           N/A     57  55  94 SE6         N/A
Brewster         N/A     55  55 100 E3          N/A
Newburgh       CLOUDY    59  59 100 CALM      29.68F FOG
Montgomery     LGT RAIN  57  56  96 N6        29.66S FOG
Otisville        N/A     55  55 100 NE3         N/A
Warwick          N/A     59  59 100 E3          N/A
Suffern          N/A     57  57 100 E2          N/A
Poughkeepsie   CLOUDY    59  55  87 VRB3      29.66F
Albany         DRIZZLE   57  53  86 N6        29.68F FOG
$$

NJZ001-105-106-008-010-013-015-019>022-104-260000-
New Jersey

CITY           SKY/WX    TMP DP  RH WIND       PRES   REMARKS
Newark/Liberty CLOUDY    57  55  93 NE6       29.67S FOG
Teterboro      CLOUDY    58  57  97 E5        29.66S FOG
Caldwell       FOG       57  57 100 E6        29.67S VSB 3/4
Somerville     CLOUDY    61  59  93 CALM      29.64F
Linden         CLOUDY    58  56  92 CALM      29.66F
Perth Amboy      N/A     54 N/A N/A S6          N/A
Sussex         CLOUDY    59  58  96 CALM      29.67F FOG
Andover          N/A     60  58  92 CALM      29.66F
Trenton        CLOUDY    60  59  96 NE6       29.66R FOG
Millville      CLOUDY    64  59  83 CALM      29.64S
Atlantic City  CLOUDY    59  57  93 S6        29.65S
Wrightstown    LGT RAIN  66  61  82 N7        29.62
Toms River     FAIR      61  57  87 E5        29.66S
Belmar         FAIR      57  54  89 E3        29.67S
$$

PAZ047>061-062-071-260000-
Eastern Pennsylvania

CITY           SKY/WX    TMP DP  RH WIND       PRES   REMARKS
Philadelphia   CLOUDY    65  59  81 N10       29.65
Allentown      CLOUDY    62  57  83 NW3       29.67S
Scranton       CLOUDY    58  57  97 CALM      29.68S
$$

CTZ002-004>006-009-010-012-RIZ004-006-007-MAZ004-011-015-260000-
Southern New England

 In CT

CITY           SKY/WX    TMP DP  RH WIND       PRES   REMARKS
Bradley Intl   LGT RAIN  57  56  96 E7        29.71F FOG
Hartford       CLOUDY    57  56  96 SE3       29.71F FOG
Danbury        LGT RAIN  56  56 100 E8        29.69F FOG
Wtrbury/Oxford LGT RAIN  55  55 100 E6        29.70F VSB 1
Norwalk Harbor   N/A     48 N/A N/A NE12        N/A
Bridgeport     FOG       52  51  97 NE6       29.68F VSB 1/4
Meriden        CLOUDY    56  55  97 E3        29.70F FOG
New Haven      FOG       55  53  93 E7        29.70F VSB 1/4
Chester        FOG       54  54 100 CALM      29.72S VSB<1/4
Groton         HVY RAIN  51  51 100 CALM      29.73S FOG
Willimantic    LGT RAIN  56  54  93 VRB5      29.73F FOG

 In RI

CITY           SKY/WX    TMP DP  RH WIND       PRES   REMARKS
Providence     LGT RAIN  53  53 100 S9        29.75F
Block Island   LGT RAIN  52  52 100 SE18      29.72F VSB 1/4
Westerly       RAIN      51  51 100 CALM      29.74F VSB 1

In MA

CITY           SKY/WX    TMP DP  RH WIND       PRES   REMARKS
Boston         LGT RAIN  51  51 100 E7        29.77F FOG
Worcester      LGT RAIN  53  52  96 SE7       29.74F VSB 1/4
Westfield      FOG       57  57 100 NE3       29.71F VSB 1
Provincetown   LGT RAIN  53  52  96 S16G24    29.80F
Nantucket      LGT RAIN  50  50 100 SE22G30   29.81F FOG
$$

ANZ330-335-338-340-345-350-353-355-260000-
Coastal Marine Observations


STATION/POSITION TIME  SKY/WX   TEMP    WIND        PRES    VSBY  WAVE
                                AIR SEA DIR/SP/G                  HT/PER
                 (UTC)          (F)     (DEG/KT/KT) (MB)    (MI)  (FT/S)
NY Harb Entrance 2250            48 46  140/  4/  8 1004.6          9/10
20 S Fire Island 2250            49 44  110/  4/  6 1004.9         11/11
23 SSW Montauk P 2250            49 44  160/ 12/ 14 1005.7         11/11
15 E Barnegat Li 2230               46                N/A          10/11
Hudson Canyon    2250            52 45  160/ 12/ 14 1004.9         13/11
Kings Point      2242            49 47   50/  3/  5 1005.8
Execution Rocks  NOT AVBL
Western LI Sound NOT AVBL
Central LI Sound 2230            51     140/  8/ 10   N/A           2
Robbins Reef     2248            51     170/  7/  8 1005.2
$$


>>>>>>>>>>>>>>>>>>>>>>>>>>>> KEY <<<<<<<<<<<<<<<<<<<<<<<<<<<
>                                                          <
>     SKY/WX - Sky Condition/Present Weather               <
>     TMP    - Temperature in Fahrenheit                   <
>     DP     - Dew Point in Fahrenheit                     <
>     RH     - Relative Humidity in Percent                <
>     WIND   - Direction (from) and Speed in MPH           <
>     PRES   - Mean Sea Level Pressure (inches of Hg)      <
>     WCI    - Wind Chill Index                            <
>     VSB    - Visibility in Miles                         <
>     HX     - Heat Index                                  <
>     TC     - Temperature in Celsius                      <
>     VRB    - Varibale Wind Direction                     <
>                                                          <
>>>>>>>>>>>>>>>>>>>>>>>>>>>> KEY <<<<<<<<<<<<<<<<<<<<<<<<<<<




USA.gov is the U.S. government's official web portal to all federal, state and local government web resources and services.